When you browse on this site, cookies collect data to enhance your experience and personalize the content and advertising you see.
Visit our Privacy Policy to learn more. By continuing to use the site, you agree to this use of cookies and data.
  • In Schweiz
  • Länderverzeichnis
  • Für 7 Tage
  • Wassertemperatur
  • Wetterkarte
  • Widgets
  • user-avatar
    Anmelden

    Stündliche Wetter Gasni

    Heute, 23 Januar, Donnerstag

    Zeit Temperatur Niederschläge Wind Luftdruck Luftfeuchtigkeit
    00:00 -14°C° 0 mm 2 m/S 584 mmHg 65%
    01:00 -14°C° 0 mm 2 m/S 584 mmHg 64%
    02:00 -14°C° 0 mm 2 m/S 583 mmHg 62%
    03:00 -15°C° 0 mm 2 m/S 583 mmHg 62%
    04:00 -15°C° 0 mm 2 m/S 583 mmHg 61%
    05:00 -15°C° 0 mm 2 m/S 582 mmHg 62%
    06:00 -13°C° 0 mm 1 m/S 582 mmHg 61%
    07:00 -13°C° 0 mm 1 m/S 583 mmHg 60%
    08:00 -13°C° 0 mm 1 m/S 583 mmHg 58%
    09:00 -11°C° 0 mm 1 m/S 583 mmHg 61%
    10:00 -10°C° 0 mm 2 m/S 584 mmHg 63%
    11:00 -8°C° 0 mm 2 m/S 585 mmHg 66%
    12:00 -6°C° 0 mm 1 m/S 584 mmHg 66%
    13:00 -4°C° 0 mm 1 m/S 584 mmHg 65%
    14:00 -3°C° 0 mm 1 m/S 583 mmHg 65%
    15:00 -4°C° 0 mm 1 m/S 583 mmHg 67%
    16:00 -6°C° 0 mm 0 m/S 582 mmHg 70%
    17:00 -7°C° 0 mm 0 m/S 581 mmHg 72%
    18:00 -8°C° 0 mm 0 m/S 581 mmHg 70%
    19:00 -9°C° 0 mm 0 m/S 581 mmHg 68%
    20:00 -10°C° 0 mm 0 m/S 581 mmHg 66%
    21:00 -10°C° 0 mm 0 m/S 582 mmHg 66%
    22:00 -10°C° 0 mm 1 m/S 582 mmHg 65%
    23:00 -10°C° 0 mm 1 m/S 582 mmHg 65%

    Morgen, 24 Januar, Freitag

    Zeit Temperatur Niederschläge Wind Luftdruck Luftfeuchtigkeit
    00:00 -10°C° 0 mm 1 m/S 582 mmHg 65%
    01:00 -10°C° 0 mm 1 m/S 581 mmHg 65%
    02:00 -11°C° 0 mm 1 m/S 581 mmHg 65%
    03:00 -11°C° 0 mm 1 m/S 580 mmHg 65%
    04:00 -11°C° 0 mm 1 m/S 580 mmHg 65%
    05:00 -10°C° 0 mm 1 m/S 580 mmHg 64%
    06:00 -10°C° 0 mm 1 m/S 580 mmHg 65%
    07:00 -9°C° 0 mm 1 m/S 580 mmHg 65%
    08:00 -9°C° 0 mm 1 m/S 581 mmHg 66%
    09:00 -7°C° 0.1 mm 1 m/S 581 mmHg 69%
    10:00 -6°C° 0.1 mm 1 m/S 582 mmHg 71%
    11:00 -3°C° 0.1 mm 1 m/S 582 mmHg 73%
    12:00 -2°C° 0.2 mm 1 m/S 581 mmHg 79%
    13:00 -2°C° 0.2 mm 1 m/S 581 mmHg 85%
    14:00 -1°C° 0.2 mm 1 m/S 580 mmHg 91%
    15:00 -2°C° 0 mm 1 m/S 580 mmHg 92%
    16:00 -2°C° 0 mm 1 m/S 579 mmHg 93%
    17:00 -4°C° 0 mm 0 m/S 579 mmHg 94%
    18:00 -5°C° 0 mm 0 m/S 579 mmHg 92%
    19:00 -5°C° 0 mm 0 m/S 579 mmHg 91%
    20:00 -6°C° 0 mm 1 m/S 579 mmHg 90%
    21:00 -6°C° 0 mm 1 m/S 579 mmHg 89%
    22:00 -7°C° 0 mm 1 m/S 580 mmHg 87%
    23:00 -7°C° 0 mm 1 m/S 580 mmHg 86%

    übermorgen, 25 Januar, Samstag

    Zeit Temperatur Niederschläge Wind Luftdruck Luftfeuchtigkeit
    00:00 -7°C° 0 mm 1 m/S 580 mmHg 86%
    01:00 -7°C° 0 mm 1 m/S 580 mmHg 86%
    02:00 -7°C° 0 mm 1 m/S 580 mmHg 85%
    03:00 -7°C° 0 mm 1 m/S 580 mmHg 84%
    04:00 -8°C° 0 mm 2 m/S 580 mmHg 82%
    05:00 -7°C° 0 mm 2 m/S 580 mmHg 81%
    06:00 -7°C° 0 mm 2 m/S 581 mmHg 78%
    07:00 -8°C° 0 mm 2 m/S 581 mmHg 75%
    08:00 -8°C° 0 mm 2 m/S 581 mmHg 73%
    09:00 -6°C° 0 mm 1 m/S 582 mmHg 71%
    10:00 -3°C° 0 mm 1 m/S 583 mmHg 69%
    11:00 -2°C° 0 mm 1 m/S 583 mmHg 67%
    12:00 -2°C° 0 mm 1 m/S 583 mmHg 68%
    13:00 -1°C° 0 mm 1 m/S 582 mmHg 70%
    14:00 -2°C° 0 mm 0 m/S 582 mmHg 71%
    15:00 -3°C° 0 mm 0 m/S 581 mmHg 73%
    16:00 -4°C° 0 mm 0 m/S 580 mmHg 76%
    17:00 -5°C° 0 mm 0 m/S 580 mmHg 78%
    18:00 -6°C° 0 mm 1 m/S 580 mmHg 74%
    19:00 -7°C° 0 mm 1 m/S 580 mmHg 70%
    20:00 -8°C° 0 mm 1 m/S 581 mmHg 67%
    21:00 -9°C° 0 mm 1 m/S 581 mmHg 63%
    22:00 -9°C° 0 mm 1 m/S 581 mmHg 60%
    23:00 -12°C° 0 mm 2 m/S 580 mmHg 57%

    26 Januar, Sonntag

    Zeit Temperatur Niederschläge Wind Luftdruck Luftfeuchtigkeit
    00:00 -10°C° 0 mm 1 m/S 580 mmHg 55%
    01:00 -10°C° 0 mm 1 m/S 580 mmHg 54%
    02:00 -11°C° 0 mm 1 m/S 579 mmHg 53%
    03:00 -13°C° 0 mm 2 m/S 579 mmHg 51%
    04:00 -13°C° 0 mm 2 m/S 579 mmHg 49%
    05:00 -14°C° 0 mm 2 m/S 579 mmHg 48%
    06:00 -14°C° 0 mm 2 m/S 579 mmHg 46%
    07:00 -14°C° 0 mm 2 m/S 579 mmHg 45%
    08:00 -14°C° 0 mm 2 m/S 579 mmHg 44%
    09:00 -10°C° 0 mm 1 m/S 580 mmHg 47%
    10:00 -8°C° 0 mm 1 m/S 581 mmHg 49%
    11:00 -6°C° 0 mm 1 m/S 581 mmHg 52%
    12:00 -4°C° 0 mm 1 m/S 581 mmHg 54%
    13:00 -4°C° 0 mm 1 m/S 580 mmHg 56%
    14:00 -4°C° 0 mm 0 m/S 579 mmHg 58%
    15:00 -5°C° 0 mm 0 m/S 579 mmHg 60%
    16:00 -7°C° 0 mm 0 m/S 578 mmHg 63%
    17:00 -8°C° 0 mm 0 m/S 577 mmHg 65%
    18:00 -9°C° 0 mm 0 m/S 577 mmHg 63%
    19:00 -9°C° 0 mm 1 m/S 578 mmHg 60%
    20:00 -10°C° 0 mm 1 m/S 578 mmHg 58%
    21:00 -12°C° 0 mm 2 m/S 578 mmHg 57%
    22:00 -12°C° 0 mm 2 m/S 578 mmHg 56%
    23:00 -12°C° 0 mm 2 m/S 578 mmHg 55%

    27 Januar, Montag

    Zeit Temperatur Niederschläge Wind Luftdruck Luftfeuchtigkeit
    00:00 -12°C° 0 mm 2 m/S 578 mmHg 53%
    01:00 -13°C° 0 mm 2 m/S 578 mmHg 52%
    02:00 -13°C° 0 mm 2 m/S 577 mmHg 51%
    03:00 -13°C° 0 mm 2 m/S 577 mmHg 50%
    04:00 -13°C° 0 mm 2 m/S 577 mmHg 49%
    05:00 -14°C° 0 mm 3 m/S 577 mmHg 48%
    06:00 -14°C° 0 mm 3 m/S 577 mmHg 48%
    07:00 -15°C° 0 mm 3 m/S 577 mmHg 48%
    08:00 -14°C° 0 mm 2 m/S 578 mmHg 48%
    09:00 -10°C° 0 mm 2 m/S 578 mmHg 51%
    10:00 -8°C° 0 mm 2 m/S 579 mmHg 55%
    11:00 -6°C° 0 mm 2 m/S 580 mmHg 58%
    12:00 -5°C° 0 mm 2 m/S 580 mmHg 59%
    13:00 -2°C° 0 mm 1 m/S 579 mmHg 60%
    14:00 -1°C° 0 mm 1 m/S 579 mmHg 61%
    15:00 -3°C° 0 mm 1 m/S 579 mmHg 63%
    16:00 -4°C° 0 mm 1 m/S 578 mmHg 65%
    17:00 -6°C° 0 mm 1 m/S 578 mmHg 67%
    18:00 -7°C° 0 mm 1 m/S 578 mmHg 63%
    19:00 -9°C° 0 mm 2 m/S 578 mmHg 59%
    20:00 -10°C° 0 mm 2 m/S 579 mmHg 55%
    21:00 -10°C° 0 mm 2 m/S 579 mmHg 54%
    22:00 -10°C° 0 mm 2 m/S 579 mmHg 52%
    23:00 -12°C° 0 mm 2 m/S 579 mmHg 51%

    28 Januar, Dienstag

    Zeit Temperatur Niederschläge Wind Luftdruck Luftfeuchtigkeit
    00:00 -12°C° 0 mm 2 m/S 579 mmHg 50%
    01:00 -14°C° 0 mm 3 m/S 579 mmHg 49%
    02:00 -14°C° 0 mm 3 m/S 579 mmHg 48%
    03:00 -14°C° 0 mm 3 m/S 579 mmHg 49%
    04:00 -15°C° 0 mm 3 m/S 578 mmHg 49%
    05:00 -15°C° 0 mm 3 m/S 578 mmHg 50%
    06:00 -15°C° 0 mm 3 m/S 579 mmHg 50%
    07:00 -15°C° 0 mm 3 m/S 579 mmHg 50%
    08:00 -16°C° 0 mm 3 m/S 579 mmHg 51%
    09:00 -13°C° 0 mm 2 m/S 580 mmHg 54%
    10:00 -10°C° 0 mm 2 m/S 580 mmHg 58%
    11:00 -8°C° 0 mm 2 m/S 581 mmHg 61%
    12:00 -7°C° 0 mm 2 m/S 580 mmHg 62%
    13:00 -4°C° 0 mm 1 m/S 580 mmHg 63%
    14:00 -3°C° 0 mm 1 m/S 580 mmHg 64%
    15:00 -4°C° 0 mm 1 m/S 579 mmHg 66%
    16:00 -6°C° 0 mm 1 m/S 579 mmHg 68%
    17:00 -8°C° 0 mm 1 m/S 578 mmHg 69%
    18:00 -10°C° 0 mm 2 m/S 578 mmHg 67%
    19:00 -12°C° 0 mm 2 m/S 578 mmHg 65%
    20:00 -14°C° 0 mm 2 m/S 579 mmHg 63%
    21:00 -14°C° 0 mm 2 m/S 579 mmHg 62%
    22:00 -15°C° 0 mm 2 m/S 579 mmHg 61%
    23:00 -16°C° 0 mm 3 m/S 579 mmHg 59%
    Mehr zeigen